Meteo Giornale » Osservazioni meteo Belgio » Anversa-Deurne

ore: 14:50 - Osservazioni Meteo Anversa-Deurne
Lat. 51° 12' N Lon. 4° 28' E Alt. 12 metri s.l.m.

poco_nuvoloso

21 °C

Poco Nuvoloso

Temp. 24 Ore

16 °C

21 °C

Ovest/Nord-Ovest

14.8 Km/h

Dew point 12 °C

Umidità 56 %

Visibilità  10 Km

Il sole sorge alle ore 06:55

Il sole tramonta alle ore 20:28

Data e Ora Cielo e Fenomeni T °C DP °C Um. % Pres. hPa Vis. km Vento km/h
Oggi h: 14:50 poco_nuvoloso Poco Nuvoloso 21 12 56 1020 10 O/NO 14.8
Oggi h: 14:20 nuvoloso Nuvoloso 20 12 59 1020 10 NO 16.7
Oggi h: 13:50 poco_nuvoloso Poco Nuvoloso 21 13 60 1020 10 O 13
Oggi h: 13:20 molto_nuvoloso Molto Nuvoloso 19 12 63 1021 10 O/NO 18.5
Oggi h: 12:50 molto_nuvoloso Molto Nuvoloso 19 13 68 1021 10 O/NO 18.5
Oggi h: 12:20 nuvoloso Nuvoloso 20 12 59 1020 10 O 14.8
Oggi h: 11:50 nuvoloso Nuvoloso 20 14 68 1020 10 O 11.1
Oggi h: 11:20 nuvoloso Nuvoloso 19 14 72 1020 10 O 9.3
Oggi h: 10:50 nuvoloso Nuvoloso 19 15 77 1020 10 O/SO 7.4
Oggi h: 10:20 poco_nuvoloso Poco Nuvoloso 18 16 88 1020 10 SO 11.1
Oggi h: 09:50 poco_nuvoloso Poco Nuvoloso 17 15 88 1020 10 SO 9.3
Oggi h: 09:20 molto_nuvoloso Molto Nuvoloso 16 15 93 1019 10 SO 7.4
Oggi h: 08:50 nuvoloso_piovaschi Pioggia 16 15 93 1019 10 O/SO 9.3
Oggi h: 08:20 molto_nuvoloso Molto Nuvoloso 16 15 93 1019 10 O/SO 13
Oggi h: 07:50 molto_nuvoloso Molto Nuvoloso 16 15 93 1019 10 SO 9.3
Oggi h: 07:20 poco_nuvoloso Poco Nuvoloso 16 15 93 1019 10 SO 9.3
Oggi h: 06:50 poco_nuvoloso Poco Nuvoloso 16 15 93 1018 10 SO 7.4
Oggi h: 06:20 molto_nuvoloso Molto Nuvoloso 16 15 93 1018 10 SO 11.1
Oggi h: 05:50 nebbia Cielo Invisibile 16 15 93 1018 10 SO 9.3
Oggi h: 05:20 sereno Sereno 16 15 93 1018 10 SO 11.1
Oggi h: 04:50 poco_nuvoloso Poco Nuvoloso 16 15 93 1018 10 SO 9.3
Oggi h: 04:20 molto_nuvoloso Molto Nuvoloso 16 15 93 1018 10 SO 7.4
Oggi h: 03:50 poco_nuvoloso Poco Nuvoloso 16 15 93 1018 10 S/SO 9.3
Oggi h: 03:20 nebbia Cielo Invisibile 17 15 88 1018 10 S/SO 11.1
Oggi h: 02:50 nebbia Cielo Invisibile 17 15 88 1018 10 SO 11.1
Oggi h: 02:20 sereno Sereno 17 15 88 1018 10 SO 13
Oggi h: 01:50 nebbia Cielo Invisibile 17 15 88 1018 10 SO 11.1
Oggi h: 01:20 nebbia Cielo Invisibile 17 14 82 1018 10 SO 13
Oggi h: 00:50 nebbia Cielo Invisibile 17 14 82 1017 10 SO 13
Oggi h: 00:20 nebbia Cielo Invisibile 17 14 82 1017 10 SO 14.8
Ieri h: 23:50 nebbia Cielo Invisibile 18 14 77 1017 10 O/SO 13
Ieri h: 23:20 poco_nuvoloso Poco Nuvoloso 18 14 77 1017 10 O/SO 16.7
Ieri h: 22:50 poco_nuvoloso Poco Nuvoloso 18 14 77 1017 10 O/SO 18.5
Ieri h: 22:20 poco_nuvoloso Poco Nuvoloso 18 14 77 1017 10 SO 14.8
Ieri h: 21:50 poco_nuvoloso Poco Nuvoloso 19 14 72 1017 10 O/SO 14.8
Ieri h: 21:20 poco_nuvoloso Poco Nuvoloso 19 13 68 1016 10 O/SO 13
Ieri h: 20:50 poco_nuvoloso Poco Nuvoloso 19 13 68 1016 10 O/SO 14.8
Ieri h: 20:20 poco_nuvoloso Poco Nuvoloso 20 12 59 1015 10 O 14.8
Ieri h: 19:50 poco_nuvoloso Poco Nuvoloso 20 12 59 1015 10 O 18.5
Ieri h: 19:20 poco_nuvoloso Poco Nuvoloso 21 11 52 1014 10 O 18.5
Ieri h: 18:50 poco_nuvoloso Poco Nuvoloso 21 12 56 1014 10 O 16.7
Ieri h: 18:20 nuvoloso Nuvoloso 21 12 56 1014 10 O 24
Ieri h: 17:50 nuvoloso Nuvoloso 21 11 52 1014 10 O 25.9
Ieri h: 17:20 nuvoloso Nuvoloso 21 12 56 1013 10 O/NO 29.6
Ieri h: 16:50 nuvoloso Nuvoloso 21 12 56 1013 10 O 31.5
Ieri h: 16:20 poco_nuvoloso Poco Nuvoloso 21 12 56 1012 10 O 24
Ieri h: 15:50 poco_nuvoloso Poco Nuvoloso 20 12 59 1012 10 O 24